Home > Time Zones > World Clock > Weather > Norway > Oslo > Past weeks

Flag Weather past 2 weeks in Oslo, Norway

Now
38 °F

Chilly.


Feels Like: 35 °F
Forecast: 32 / 41 °F
Wind: 3 mph from Northeast

Location: Oslo-Blindern

Current Time: Nov 23, 2014 at 5:54:42 AM

Latest Report: Nov 23, 2014 at 5:00 AM


Visibility: N/A

Pressure: 30.27 "Hg

Humidity: 88%

Dew point: 35 °F

Location of OsloLocation

Historic Weather in Oslo — Graph

°F

Oslo temperature yesterday

Maximum temperature yesterday: 36 °F (at 3:00 PM)
Minimum temperature yesterday: 35 °F (at 2:00 AM)
Average temperature yesterday: 36 °F

Past Weeks' High & Low Weather Summary

 TemperatureHumidityPressure
High50 °F (Nov 9, 2:00 PM)100% (Nov 11, 1:00 AM)30.52 "Hg (Nov 11, 1:00 AM)
Low35 °F (Nov 20, 4:00 PM)72% (Nov 17, 11:00 AM)29.66 "Hg (Nov 10, 9:00 PM)
Average41 °F88%30.15 "Hg
* Reported Nov 8 4:00 AM — Nov 23 4:00 AM, Oslo, Weather by CustomWeather, © 2014

Note: Actual official high and low records may vary slightly from our data, if they occured in-between our weather recording intervals... More about our weather records

Advertising

Oslo weather history for previous 24 hours

 ConditionsComfort  
Time TempWeatherWind HumidityBarometerVisibility
4:00 AM
Nov 23
38 °FLight rain. Low clouds.3 mph88%30.27 "Hg16 mi
3:00 AM37 °FChilly.2 mph88%30.28 "HgN/A
2:00 AM37 °FChilly.2 mph88%30.29 "HgN/A
1:00 AM37 °FLight rain. Low clouds.2 mph89%30.30 "Hg16 mi
12:00 AM36 °FChilly.3 mph88%30.30 "HgN/A
11:00 PM
Nov 22
36 °FChilly.3 mph88%30.30 "HgN/A
10:00 PM36 °FOvercast.3 mph89%30.30 "Hg19 mi
9:00 PM36 °FChilly.2 mph89%30.30 "HgN/A
8:00 PM36 °FChilly.2 mph89%30.30 "HgN/A
7:00 PM36 °FOvercast.2 mph86%30.29 "Hg16 mi
6:00 PM36 °FChilly.1 mph85%30.29 "HgN/A
5:00 PM36 °FChilly.2 mph85%30.29 "HgN/A
4:00 PM36 °FOvercast.3 mph83%30.29 "Hg9 mi
3:00 PM36 °FChilly.1 mph85%30.29 "HgN/A
2:00 PM36 °FChilly.2 mph84%30.30 "HgN/A
1:00 PM36 °FOvercast.2 mph84%30.31 "Hg12 mi
12:00 PM36 °FChilly.1 mph86%30.31 "HgN/A
11:00 AM36 °FChilly.1 mph87%30.32 "HgN/A
10:00 AM35 °FOvercast.1 mph90%30.32 "Hg19 mi
7:00 AM35 °FOvercast.1 mph88%30.29 "Hg34 mi
6:00 AM35 °FChilly.2 mph90%30.30 "HgN/A
5:00 AM35 °FChilly.1 mph91%30.30 "HgN/A
Weather by CustomWeather, © 2014

See weather overviewHow to use our weather pages